User: anonymous   Login
Location: Delettes
(50.6178°N, 2.2123°E)
Time: 06:33:10
(UTC+00:00)
Language:

Cosmos 540 Rocket - Orbit

View from above orbital plane
View from above orbital plane
View from above satellite
View from above satellite

Ground track
Ground track

The orbit data is extracted from the following two-line orbital elements,

1  6324U 72104B   20156.80276568 +.00000026 +00000-0 +15507-4 0  9995
2  6324 074.0775 257.6089 0008088 120.9105 239.2849 14.43490418491656
Epoch (UTC): 04 June 2020 19:15:58
Eccentricity: 0.0008088
inclination: 74.0775°
perigee height: 741 km
apogee height: 753 km
right ascension of ascending node: 257.6089°
argument of perigee: 120.9105°
revolutions per day: 14.43490418
mean anomaly at epoch: 239.2849°
orbit number at epoch: 49165

The dashed part of the orbit path shows where the satellite is in the earth's shadow,  

DLR